Lexington, KY

12:57 PM EDT on October 18, 2017 (GMT -0400)
Blue Grass

Weather History for KLEX - September, 2012

Change the Weather History Date:

Tuesday, September 25, 2012

  Actual Average Record
Temperature  
Mean Temperature 60 °F 64 °F  
Max Temperature 70 °F 75 °F 93 °F (2007)
Min Temperature 50 °F 54 °F 35 °F (1965)
Degree Days  
Heating Degree Days 5 3  
Month to date heating degree days 66 30  
Since 1 July heating degree days 66 32  
Cooling Degree Days 0 3  
Month to date cooling degree days 113 133  
Year to date cooling degree days 1341 1150  
Growing Degree Days 10 (Base 50)    
Moisture  
Dew Point 51 °F    
Average Humidity 81    
Maximum Humidity 100    
Minimum Humidity 62    
Precipitation  
Precipitation 0.98 in 0.10 in 2.96 in (1970)
Month to date precipitation 4.52 2.41  
Year to date precipitation 32.13 34.08  
Snow  
Snow 0.00 in 0.00 in - ()
Month to date snowfall 0.0 0.0  
Since 1 July snowfall 0.0 0.0  
Since 1 September snowfall 0.0 0.0  
Snow Depth 0.00 in    
Sea Level Pressure  
Sea Level Pressure 30.08 in    
Wind  
Wind Speed 10 mph (South)    
Max Wind Speed 22 mph    
Max Gust Speed 31 mph    
Visibility 9 miles    
Events Rain , Thunderstorm    
T = Trace of Precipitation, MM = Missing Value Source: NWS Daily Summary

Daily Weather History Graph

Daily Weather History Graph

Search for Another Location

Airport or City:

Trip Planner

Search our weather history database for the weather conditions in past years. The results will help you decide how hot, cold, wet, or windy it might be!

Date:

Astronomy

Sep. 25, 2012 Rise Set
Actual Time 7:29 AM EDT 7:29 PM EDT
Civil Twilight 7:02 AM EDT 7:56 PM EDT
Nautical Twilight 6:32 AM EDT 8:26 PM EDT
Astronomical Twilight 6:01 AM EDT 8:57 PM EDT
Moon 4:51 PM EDT (9/25) 2:53 AM EDT (9/25)
Length of Visible Light 12h 53m
Length of Day
12h 00m
Waxing Gibbous, 80% of the Moon is Illuminated
Sep 25
Waxing Gibbous
Sep 29
Full
Oct 8
Last Quarter
Oct 15
New
Oct 21
First Quarter

Hourly Weather History & Observations

Time (EDT) Temp. Dew Point Humidity Pressure Visibility Wind Dir Wind Speed Gust Speed Precip Events Conditions
12:54 AM 51.1 °F 41.0 °F 68% 30.10 in 10.0 mi South 5.8 mph - N/A   Clear
1:54 AM 51.1 °F 42.1 °F 71% 30.09 in 10.0 mi SSE 4.6 mph - N/A   Mostly Cloudy
2:54 AM 51.1 °F 43.0 °F 74% 30.09 in 10.0 mi South 6.9 mph - N/A   Mostly Cloudy
3:54 AM 53.1 °F 45.0 °F 74% 30.09 in 10.0 mi South 6.9 mph - N/A   Overcast
4:54 AM 54.0 °F 45.0 °F 72% 30.08 in 10.0 mi South 6.9 mph - N/A   Overcast
5:54 AM 55.9 °F 46.0 °F 69% 30.07 in 10.0 mi South 8.1 mph - N/A   Overcast
6:54 AM 55.9 °F 45.0 °F 67% 30.06 in 10.0 mi South 6.9 mph - N/A   Mostly Cloudy
7:54 AM 57.9 °F 46.0 °F 65% 30.08 in 10.0 mi South 6.9 mph - N/A   Mostly Cloudy
8:54 AM 59.0 °F 46.9 °F 64% 30.09 in 10.0 mi South 8.1 mph - N/A   Overcast
9:54 AM 57.9 °F 46.9 °F 67% 30.08 in 10.0 mi South 9.2 mph - 0.00 in Rain Light Rain
10:14 AM 57.2 °F 48.2 °F 72% 30.10 in 10.0 mi South 9.2 mph - 0.01 in Rain , Thunderstorm Light Thunderstorms and Rain
10:30 AM 55.4 °F 50.0 °F 82% 30.15 in 1.8 mi WSW 18.4 mph 26.5 mph 0.16 in Rain , Thunderstorm Heavy Thunderstorms and Rain
10:41 AM 53.6 °F 51.8 °F 94% 30.14 in 3.0 mi SW 13.8 mph 31.1 mph 0.30 in Rain , Thunderstorm Heavy Thunderstorms and Rain
10:54 AM 54.0 °F 52.0 °F 93% 30.14 in 5.0 mi SSW 13.8 mph - 0.37 in Rain , Thunderstorm Thunderstorms and Rain
11:54 AM 54.0 °F 53.1 °F 97% 30.14 in 5.0 mi South 11.5 mph - 0.32 in Rain , Thunderstorm Heavy Thunderstorms and Rain
12:21 PM 55.4 °F 53.6 °F 94% 30.14 in 5.0 mi South 16.1 mph - 0.10 in Rain , Thunderstorm Thunderstorms and Rain
12:54 PM 55.9 °F 55.9 °F 100% 30.13 in 4.0 mi South 13.8 mph 19.6 mph 0.24 in Rain , Thunderstorm Thunderstorms and Rain
1:54 PM 55.9 °F 55.0 °F 97% 30.08 in 10.0 mi South 13.8 mph - 0.05 in   Partly Cloudy
2:54 PM 59.0 °F 55.4 °F 88% 30.06 in 10.0 mi South 12.7 mph 21.9 mph N/A   Partly Cloudy
3:54 PM 64.0 °F 57.9 °F 80% 30.03 in 10.0 mi South 10.4 mph - N/A   Overcast
4:54 PM 66.9 °F 57.9 °F 73% 29.99 in 10.0 mi South 15.0 mph 21.9 mph N/A   Clear
5:54 PM 69.1 °F 60.1 °F 73% 30.00 in 10.0 mi South 15.0 mph - N/A   Clear
6:54 PM 68.0 °F 59.0 °F 73% 30.02 in 10.0 mi SSW 12.7 mph 24.2 mph N/A   Clear
7:54 PM 64.4 °F 57.2 °F 77% 30.04 in 10.0 mi Calm Calm - N/A   Partly Cloudy
8:54 PM 63.0 °F 57.9 °F 84% 30.04 in 10.0 mi SE 3.5 mph - N/A   Clear
9:54 PM 62.1 °F 57.9 °F 86% 30.03 in 10.0 mi SSE 9.2 mph - N/A   Partly Cloudy
10:54 PM 62.1 °F 57.9 °F 86% 30.04 in 10.0 mi South 6.9 mph - N/A   Clear
11:54 PM 64.0 °F 57.9 °F 80% 30.04 in 10.0 mi South 12.7 mph - N/A   Clear